Retour au catalogue

DELTA 1 DEB

ActifLEO
NORAD 29184·DEBRIS·🇺🇸 United States

Lancé Jan 11, 1968 depuis Vandenberg Space Force Base

Loading…

Prochains Passages (prochaines 24 heures)

TLE

VieillissantSource: Space-Track

Époque: Sep 11, 2026, 02:14 UTC

1 29184U 68002H   26254.09336370  .00000274  00000-0  77930-3 0  9992
2 29184 105.8318 350.0571 0258074  77.1949 285.7843 13.17052125569864

Suivez DELTA 1 DEB en temps réel avec AllMySat

Download on the App Store